Location: Seven Kings
(51.5667°N, 0.1000°E)
Time: 22:58:57
(UTC+00:00)

Tianhe-1 - Visible Passes

Search period start: 22 June 2021 00:00
Search period end: 02 July 2021 00:00
Orbit: 375 x 385 km, 41.5° (Epoch: 22 June)

Date Brightness Start Highest point End Pass type
(mag) Time Alt. Az. Time Alt. Az. Time Alt. Az.
25 Jun 3.2 02:33:41 10° SSW 02:35:00 12° S 02:36:23 10° SE visible
27 Jun 3.0 02:08:22 13° S 02:08:32 13° S 02:10:09 10° SE visible
28 Jun 3.1 02:41:45 10° SSW 02:43:05 13° S 02:44:32 10° SSE visible
29 Jun 3.5 01:43:10 10° SSE 01:43:10 10° SSE 01:43:14 10° SSE visible
